Weather in Tsandrypsh

Abkhazia     43°22′48″N   40°04′49″E
temp.,
°C
wind,
m/s
gust,
m/s
humid.,
%
clouds,
%
prec.,
mm/h
press.,
hPa
HPBL,
m
10 august, wed
wed1000:00+21ene32580 0.0 100848
03:00+21ene22610 0.0 100833
06:00+21ene22643 0.0 100832
09:00+26sw11575 0.0 1008518
12:00+27w335731 0.0 10081006
15:00+28w215689 0.0 1007467
18:00+25w23726 0.1 1006199
21:00+23ene11784 0.1 100727
11 august, thu
thu1100:00+22e11760 0.0 100742
03:00+21ene22781 0.4 100739
06:00+21ene217620 0.1 100833
09:00+22ene338998 2.3 100881
12:00+28s335526 0.0 10081090
15:00+28ssw33584 0.0 1008872
18:00+26w21775 0.2 1008220
21:00+22ese119052 0.3 101048
12 august, fri
fri1200:00+21e228635 0.9 101171
03:00+21ene22797 1.0 101150
06:00+21ene21785 0.1 101251
09:00+26w11666 0.7 1012654
12:00+28sw336430 0.1 1011986
15:00+26sw217625 1.1 1011617
18:00+26w117810 0.5 1011309
21:00+23ene11911 0.6 101238
13 august, sat
sat1300:00+22e22852 0.3 101243
03:00+21ene22800 0.3 101243
06:00+21ene22790 0.0 101141
09:00+26wsw11670 0.0 1011454
12:00+28w32630 0.0 1010784
15:00+27w22671 0.1 1009620
18:00+24nnw12851 0.6 1008184
21:00+23nne12860 0.6 100756
14 august, sun
sun1400:00+22ne11880 0.0 100853
03:00+22ene11800 0.0 100727
06:00+22ene21750 0.0 100832
09:00+27sw11670 0.0 1007451
12:00+28wsw216431 0.0 1008893
15:00+28wsw21625 0.1 1007727
18:00+26wnw22730 0.1 1007185
21:00+23ene11840 0.1 100735